TimeCDT,TemperatureF,Dew PointF,Humidity,Sea Level PressureIn,VisibilityMPH,Wind Direction,Wind SpeedMPH,Gust SpeedMPH,PrecipitationIn,Events,Conditions,WindDirDegrees,DateUTC
12:15 AM,59.0,55.4,88,29.89,10.0,WSW,4.6,-,N/A,,Clear,240,2013-06-17 05:15:00
12:35 AM,59.0,55.4,88,29.89,10.0,West,4.6,-,N/A,,Partly Cloudy,260,2013-06-17 05:35:00
12:55 AM,57.2,55.4,94,29.86,10.0,South,5.8,-,N/A,,Scattered Clouds,170,2013-06-17 05:55:00
1:15 AM,57.2,55.4,94,29.87,10.0,Calm,Calm,-,N/A,,Mostly Cloudy,0,2013-06-17 06:15:00
1:35 AM,57.2,53.6,88,29.87,10.0,WSW,5.8,-,N/A,,Mostly Cloudy,240,2013-06-17 06:35:00
1:55 AM,59.0,55.4,88,29.90,10.0,WNW,8.1,-,N/A,,Overcast,290,2013-06-17 06:55:00
2:15 AM,60.8,53.6,77,29.91,10.0,NW,11.5,-,N/A,,Mostly Cloudy,310,2013-06-17 07:15:00
2:35 AM,60.8,55.4,82,29.91,10.0,NW,11.5,-,N/A,,Mostly Cloudy,310,2013-06-17 07:35:00
2:55 AM,60.8,55.4,82,29.90,10.0,WNW,5.8,-,0.01,Thunderstorm,Overcast,290,2013-06-17 07:55:00
3:15 AM,59.0,55.4,88,29.90,10.0,WNW,5.8,-,0.02,,Overcast,290,2013-06-17 08:15:00
3:35 AM,60.8,55.4,82,29.91,10.0,NW,8.1,-,0.02,,Overcast,320,2013-06-17 08:35:00
3:55 AM,60.8,53.6,77,29.90,10.0,North,6.9,-,0.02,,Overcast,350,2013-06-17 08:55:00
4:15 AM,59.0,53.6,82,29.89,10.0,Calm,Calm,-,N/A,,Mostly Cloudy,0,2013-06-17 09:15:00
4:35 AM,57.2,53.6,88,29.88,10.0,South,3.5,-,N/A,,Mostly Cloudy,170,2013-06-17 09:35:00
4:55 AM,57.2,55.4,94,29.87,10.0,SSW,5.8,-,N/A,,Mostly Cloudy,210,2013-06-17 09:55:00
5:15 AM,57.2,55.4,94,29.89,10.0,SW,3.5,-,N/A,,Mostly Cloudy,220,2013-06-17 10:15:00
5:35 AM,57.2,53.6,88,29.90,10.0,Calm,Calm,-,N/A,,Partly Cloudy,0,2013-06-17 10:35:00
5:55 AM,55.4,53.6,94,29.92,10.0,North,6.9,-,N/A,,Partly Cloudy,10,2013-06-17 10:55:00
6:15 AM,57.2,55.4,94,29.92,10.0,North,5.8,-,N/A,,Scattered Clouds,360,2013-06-17 11:15:00
6:35 AM,59.0,55.4,88,29.92,10.0,NNE,8.1,-,N/A,,Partly Cloudy,20,2013-06-17 11:35:00
6:55 AM,60.8,55.4,82,29.92,10.0,NE,5.8,-,N/A,,Clear,40,2013-06-17 11:55:00
7:15 AM,60.8,55.4,82,29.92,10.0,NNE,8.1,-,N/A,,Clear,20,2013-06-17 12:15:00
7:35 AM,60.8,55.4,82,29.93,10.0,NNE,9.2,-,N/A,,Clear,20,2013-06-17 12:35:00
7:55 AM,60.8,55.4,82,29.94,10.0,NNE,4.6,-,N/A,,Partly Cloudy,20,2013-06-17 12:55:00
8:15 AM,60.8,55.4,82,29.92,10.0,ESE,8.1,-,N/A,,Mostly Cloudy,110,2013-06-17 13:15:00
8:35 AM,60.8,55.4,82,29.93,10.0,East,8.1,-,N/A,,Mostly Cloudy,80,2013-06-17 13:35:00
8:55 AM,60.8,55.4,82,29.93,10.0,East,6.9,-,N/A,,Mostly Cloudy,100,2013-06-17 13:55:00
9:15 AM,60.8,55.4,82,29.94,10.0,ESE,6.9,-,N/A,,Mostly Cloudy,120,2013-06-17 14:15:00
9:35 AM,60.8,55.4,82,29.95,10.0,East,5.8,-,N/A,,Overcast,100,2013-06-17 14:35:00
9:55 AM,62.6,53.6,72,29.95,10.0,East,9.2,-,N/A,,Partly Cloudy,80,2013-06-17 14:55:00
10:15 AM,62.6,53.6,72,29.95,10.0,East,6.9,-,N/A,,Clear,100,2013-06-17 15:15:00
10:35 AM,62.6,55.4,77,29.95,10.0,ENE,9.2,-,N/A,,Clear,70,2013-06-17 15:35:00
10:55 AM,62.6,55.4,77,29.95,10.0,ENE,9.2,-,N/A,,Clear,70,2013-06-17 15:55:00
11:15 AM,62.6,55.4,77,29.96,10.0,East,8.1,-,N/A,,Clear,90,2013-06-17 16:15:00
11:35 AM,64.4,55.4,73,29.96,10.0,NE,8.1,-,N/A,,Partly Cloudy,50,2013-06-17 16:35:00
11:55 AM,64.4,55.4,73,29.96,10.0,East,10.4,-,N/A,,Clear,80,2013-06-17 16:55:00
12:15 PM,62.6,55.4,77,29.96,10.0,NE,8.1,-,N/A,,Partly Cloudy,50,2013-06-17 17:15:00
12:35 PM,62.6,55.4,77,29.96,10.0,ENE,10.4,-,N/A,,Clear,60,2013-06-17 17:35:00
12:55 PM,62.6,53.6,72,29.96,10.0,ENE,12.7,-,N/A,,Clear,60,2013-06-17 17:55:00
1:15 PM,64.4,55.4,73,29.95,10.0,ENE,11.5,-,N/A,,Clear,60,2013-06-17 18:15:00
1:35 PM,64.4,53.6,68,29.96,10.0,NNE,8.1,-,N/A,,Clear,30,2013-06-17 18:35:00
1:55 PM,64.4,53.6,68,29.96,10.0,ENE,9.2,-,N/A,,Scattered Clouds,70,2013-06-17 18:55:00
2:15 PM,64.4,53.6,68,29.96,10.0,East,8.1,-,N/A,,Mostly Cloudy,80,2013-06-17 19:15:00
2:35 PM,64.4,53.6,68,29.95,10.0,ENE,8.1,-,N/A,,Mostly Cloudy,60,2013-06-17 19:35:00
2:55 PM,64.4,53.6,68,29.96,10.0,East,10.4,-,N/A,,Partly Cloudy,80,2013-06-17 19:55:00
3:15 PM,62.6,51.8,68,29.97,10.0,East,8.1,-,N/A,,Mostly Cloudy,80,2013-06-17 20:15:00
3:35 PM,60.8,51.8,72,29.98,10.0,ENE,9.2,-,N/A,,Overcast,70,2013-06-17 20:35:00
3:55 PM,60.8,50.0,68,29.97,10.0,ENE,6.9,-,N/A,,Overcast,70,2013-06-17 20:55:00
4:15 PM,59.0,50.0,72,29.97,10.0,ENE,8.1,-,N/A,,Overcast,70,2013-06-17 21:15:00
4:35 PM,59.0,51.8,77,29.97,10.0,ENE,9.2,-,N/A,,Mostly Cloudy,60,2013-06-17 21:35:00
4:55 PM,60.8,51.8,72,29.97,10.0,NE,6.9,-,N/A,,Partly Cloudy,40,2013-06-17 21:55:00
5:15 PM,60.8,53.6,77,29.98,10.0,ENE,6.9,-,N/A,,Scattered Clouds,70,2013-06-17 22:15:00
5:35 PM,60.8,53.6,77,29.94,10.0,NE,11.5,-,N/A,,Mostly Cloudy,50,2013-06-17 22:35:00
5:55 PM,60.8,53.6,77,29.96,10.0,East,8.1,-,N/A,,Scattered Clouds,80,2013-06-17 22:55:00
6:15 PM,62.6,53.6,72,29.96,10.0,ENE,6.9,-,N/A,,Partly Cloudy,70,2013-06-17 23:15:00
6:35 PM,62.6,53.6,72,29.97,10.0,ENE,8.1,-,N/A,,Scattered Clouds,60,2013-06-17 23:35:00
6:55 PM,62.6,53.6,72,29.97,10.0,NNE,6.9,-,N/A,,Mostly Cloudy,20,2013-06-17 23:55:00
7:15 PM,62.6,53.6,72,29.97,10.0,NE,5.8,-,N/A,,Scattered Clouds,50,2013-06-18 00:15:00
7:35 PM,60.8,53.6,77,29.98,10.0,ENE,4.6,-,N/A,,Clear,60,2013-06-18 00:35:00
7:55 PM,60.8,51.8,72,29.98,10.0,ENE,3.5,-,N/A,,Clear,60,2013-06-18 00:55:00
8:15 PM,60.8,51.8,72,29.99,10.0,NE,5.8,-,N/A,,Clear,50,2013-06-18 01:15:00
8:35 PM,57.2,51.8,82,29.99,10.0,NE,4.6,-,N/A,,Clear,50,2013-06-18 01:35:00
8:55 PM,57.2,50.0,77,30.00,10.0,NE,8.1,-,N/A,,Clear,40,2013-06-18 01:55:00
9:15 PM,57.2,48.2,72,30.01,10.0,NE,8.1,-,N/A,,Clear,50,2013-06-18 02:15:00
9:35 PM,55.4,48.2,77,30.01,10.0,NNE,9.2,-,N/A,,Clear,30,2013-06-18 02:35:00
9:55 PM,55.4,48.2,77,30.02,10.0,NE,12.7,-,N/A,,Clear,40,2013-06-18 02:55:00
10:15 PM,55.4,48.2,77,30.03,10.0,NNE,9.2,-,N/A,,Clear,30,2013-06-18 03:15:00
10:35 PM,55.4,46.4,72,30.04,10.0,NNE,10.4,-,N/A,,Clear,30,2013-06-18 03:35:00
10:55 PM,53.6,46.4,77,30.04,10.0,NNE,10.4,-,N/A,,Clear,20,2013-06-18 03:55:00
11:15 PM,53.6,44.6,72,30.05,10.0,NNE,10.4,-,N/A,,Clear,30,2013-06-18 04:15:00
11:35 PM,53.6,44.6,72,30.05,10.0,NNE,11.5,-,N/A,,Clear,30,2013-06-18 04:35:00
11:55 PM,51.8,44.6,76,30.06,10.0,NE,6.9,16.1,N/A,,Clear,40,2013-06-18 04:55:00